sat.trackr.live / text

‹ back to catalog

STARLINK-31348

NORAD 59172 · 2024-044W

PAYLOAD ACTIVE UNKNOWN

§ Identity

Operator
Country
US
Launch date
2024-03-04
Launch site
AFETR
Launch vehicle
Mass (kg)
RCS (m²)

Purposes: comms

External: N2YO · Heavens-Above · Gunter

§ Orbital elements

Epoch: 2026-09-20T15:37:47.060832Z

Period
94.27 min
Inclination
42.9986°
Eccentricity
0.0000814
Mean motion
15.27589491 rev/d
Perigee alt
482.5 km
Apogee alt
483.6 km
Semi-major
6,861.2 km
B*
4.0807e-4
RAAN
39.1641°
Arg perigee
196.0326°
Mean anomaly
164.0500°
Rev number
14,392

§ Raw data

STARLINK-313481 59172U 24044W   26263.65123913  .00010987  00000+0  40807-3 0  99932 59172  42.9986  39.1641 0000814 196.0326 164.0500 15.27589491143924

JSON: /api/v1/satellites/59172 · /tle

For live sub-satellite position, see the globe view (requires WebGL).

§ Visibility from observer

Set your observer location to see the next 7 days of passes ≥ 10°. The values pass through the URL so the page stays shareable.

No JS? Fill the form by hand. The geolocation button needs JavaScript.